Regional Weather Roundup
Issued by NWS

Home | Current Version | Previous Version | Graphics & Text | Print | Product List | Glossary On
Versions: 1 2 3 4 5 6 7 8 9 10 11 12 13 14 15 16 17 18 19 20 21 22 23 24 25 26 27
000
ASUS45 KCYS 211510
RWRWY

WYOMING REGIONAL WEATHER ROUNDUP
NATIONAL WEATHER SERVICE CHEYENNE WY
900 AM MDT SUN MAY 21 2017

NOTE:  "FAIR" INDICATES FEW OR NO CLOUDS BELOW 12,000 FEET
WITH NO SIGNIFICANT WEATHER AND/OR OBSTRUCTIONS TO VISIBILITY.

WYZ001-211600-
YELLOWSTONE NATIONAL PARK

CITY           SKY/WX    TMP DP  RH WIND       PRES   REMARKS
LK YELLOWSTONE   N/A     37  33  85 CALM      30.32S
W YELLOWSTONE  NOT AVBL

$$
WYZ002>013-054>058-071-098>099-211600-
NORTHERN WYOMING

CITY           SKY/WX    TMP DP  RH WIND       PRES   REMARKS
JACKSON        MOSUNNY   45  36  70 N10       30.26R
CODY           FAIR      53  40  61 W5        30.25R
GREYBULL       FAIR      55  39  54 VRB3      30.19S
WORLAND        FAIR      53  43  68 VRB6      30.21R
SHERIDAN       FAIR      57  42  57 NW13G20   30.18S
BUFFALO        FAIR      53  39  59 N20       30.19S
GILLETTE       CLOUDY    50  42  74 W15       30.16R
HULETT         CLOUDY    50  39  66 W3        30.15R
NEWCASTLE      FAIR      50  36  57 NW14      30.15S

$$
WYZ014>020-022>026-101>103-211600-
CENTRAL WYOMING

CITY           SKY/WX    TMP DP  RH WIND       PRES   REMARKS
BIG PINEY      FAIR      44  33  65 VRB3      30.26S
PINEDALE       CLOUDY    43  34  70 CALM      30.27R
DUBOIS         FAIR      43  32  65 NE3       30.25S
LANDER         CLOUDY    46  40  79 SW3       30.23R
RIVERTON       CLOUDY    47  40  76 N15       30.25R
CASPER         PTSUNNY   49  41  74 SW3       30.21R
DOUGLAS        CLOUDY    50  41  71 NW13      30.20R

$$
WYZ021-027>030-104>119-211600-
SOUTHERN WYOMING

CITY           SKY/WX    TMP DP  RH WIND       PRES   REMARKS
EVANSTON       CLOUDY    44  36  73 CALM      30.24R
KEMMERER         N/A     50  32  50 N6        30.24S
FORT BRIDGER   FAIR      45  36  70 CALM      30.27S
ROCK SPRINGS   FAIR      47  38  71 CALM      30.24R
DIXON            N/A     51  34  52 CALM      30.25S
RAWLINS        FAIR      47  35  63 NE5       30.25R
SARATOGA       FAIR      46  36  66 W3        30.26R
LARAMIE        CLOUDY    41  35  79 NW5       30.24S
CHEYENNE       CLOUDY    48  36  63 NW6       30.22R
TORRINGTON     FAIR      51  41  68 W8        30.16S
PINE BLUFFS    FAIR      52  36  54 NW9       30.21R

$$




USA.gov is the U.S. government's official web portal to all federal, state and local government web resources and services.